Tracking 17857 objects as of 30-September-2016
HD Live streaming from Space Station
objects crossing your sky now

COSMOS 970 DEB

Track COSMOS 970 DEB now!
10-day predictions


NORAD ID: 12862
Int'l Code: 1977-121AQ
Perigee: 793.1 km
Apogee: 1,008.8 km
Inclination: 66.2 °
Period: 102.9 minutes
Semi major axis: 7271 km
RCS: 0.0129 m2 (small)
Launch date: December 21, 1977
Source: Commonwealth of Independent States (former USSR) (CIS)
Launch site: TYURATAM MISSILE AND SPACE COMPLEX (TTMTR)

Note: This is SATELLITE DEBRIS
Your satellite tracking list
Your tracking list is empty





NASA's NSSDC Master Catalog

Two Line Element Set (TLE):
1 12862U 77121AQ  16272.74923581  .00000443  00000-0  29796-3 0  9991
2 12862  66.2101 216.8812 0148270 155.6682 287.9820 14.04694547867551
Source of the keplerian elements: AFSPC

N2YO: 652